QFA7121 PHMK-PHDH

Flight info

Callsign QFA7121
Flight time 0h 41m
Altitude 8000
Route HMK1 MKK V15 CKH V12 HNL
Aircraft C208/L-SDF/C

Departure

Time 2026-04-26 04:37
Airport Molokai Airport (PHMK)

Arrival

Time 2026-04-26 05:18
Airport Kawaihapai Airfield (PHDH)
Time Latitude Longitude Altitude Speed Heading
2026-04-26 04:13 21.15520 -157.09282 451 ft 0 kts 64°
2026-04-26 04:30 21.15521 -157.09279 451 ft 1 kts 91°
2026-04-26 04:30 21.15499 -157.09289 451 ft 8 kts 213°
2026-04-26 04:30 21.15444 -157.09359 450 ft 17 kts 241°
2026-04-26 04:31 21.15397 -157.09460 449 ft 6 kts 247°
2026-04-26 04:31 21.15395 -157.09465 449 ft 2 kts 238°
2026-04-26 04:31 21.15354 -157.09488 448 ft 11 kts 226°
2026-04-26 04:31 21.15274 -157.09578 442 ft 22 kts 230°
2026-04-26 04:32 21.15183 -157.09697 445 ft 17 kts 237°
2026-04-26 04:32 21.15116 -157.09835 437 ft 22 kts 245°
2026-04-26 04:32 21.15073 -157.09913 434 ft 0 kts 237°
2026-04-26 04:33 21.15067 -157.09932 436 ft 0 kts 270°
2026-04-26 04:34 21.15055 -157.09942 434 ft 6 kts 90°
2026-04-26 04:34 21.15062 -157.09923 436 ft 0 kts 59°
2026-04-26 04:35 21.15068 -157.09911 441 ft 14 kts 59°
2026-04-26 04:36 21.15200 -157.09663 436 ft 61 kts 59°
2026-04-26 04:36 21.15472 -157.09156 465 ft 93 kts 60°
2026-04-26 04:36 21.15812 -157.08569 678 ft 91 kts 54°
2026-04-26 04:36 21.16198 -157.07994 779 ft 105 kts 49°
2026-04-26 04:37 21.16729 -157.07374 878 ft 120 kts 42°
2026-04-26 04:37 21.17367 -157.06791 1069 ft 123 kts 37°
2026-04-26 04:37 21.18138 -157.06359 1218 ft 126 kts
2026-04-26 04:37 21.18866 -157.06729 1414 ft 123 kts 302°
2026-04-26 04:38 21.19123 -157.07595 1598 ft 124 kts 270°
2026-04-26 04:38 21.18962 -157.08502 1786 ft 124 kts 249°
2026-04-26 04:38 21.18473 -157.09241 1983 ft 126 kts 219°
2026-04-26 04:38 21.17717 -157.09813 2052 ft 133 kts 218°
2026-04-26 04:39 21.17092 -157.10416 2448 ft 115 kts 234°
2026-04-26 04:39 21.16641 -157.11101 2712 ft 110 kts 234°
2026-04-26 04:39 21.16201 -157.11760 2949 ft 108 kts 234°
2026-04-26 04:39 21.15774 -157.12404 3194 ft 104 kts 234°
2026-04-26 04:40 21.15361 -157.13028 3427 ft 101 kts 234°
2026-04-26 04:40 21.14962 -157.13631 3656 ft 97 kts 234°
2026-04-26 04:40 21.14559 -157.14242 3785 ft 105 kts 234°
2026-04-26 04:40 21.14124 -157.14905 3905 ft 113 kts 234°
2026-04-26 04:41 21.13658 -157.15615 4034 ft 119 kts 234°
2026-04-26 04:41 21.13172 -157.16363 4161 ft 125 kts 239°
2026-04-26 04:41 21.13075 -157.17282 4274 ft 130 kts 281°
2026-04-26 04:41 21.13249 -157.18236 4460 ft 129 kts 279°
2026-04-26 04:42 21.13408 -157.19176 4667 ft 127 kts 279°
2026-04-26 04:42 21.13566 -157.20103 4867 ft 126 kts 279°
2026-04-26 04:42 21.13725 -157.21026 5064 ft 126 kts 279°
2026-04-26 04:42 21.13883 -157.21943 5261 ft 125 kts 279°
2026-04-26 04:43 21.14041 -157.22856 5458 ft 124 kts 279°
2026-04-26 04:43 21.14198 -157.23767 5654 ft 124 kts 279°
2026-04-26 04:43 21.14353 -157.24662 5848 ft 123 kts 279°
2026-04-26 04:43 21.14509 -157.25564 6045 ft 123 kts 279°
2026-04-26 04:44 21.14668 -157.26478 6183 ft 127 kts 280°
2026-04-26 04:44 21.14832 -157.27425 6316 ft 131 kts 279°
2026-04-26 04:44 21.15002 -157.28398 6448 ft 134 kts 280°
2026-04-26 04:44 21.15173 -157.29391 6588 ft 136 kts 280°
2026-04-26 04:45 21.15347 -157.30397 6717 ft 138 kts 279°
2026-04-26 04:45 21.15522 -157.31416 6857 ft 140 kts 280°
2026-04-26 04:45 21.15699 -157.32446 6984 ft 141 kts 280°
2026-04-26 04:45 21.15878 -157.33484 7110 ft 142 kts 280°
2026-04-26 04:46 21.16058 -157.34529 7242 ft 143 kts 280°
2026-04-26 04:46 21.16239 -157.35581 7370 ft 144 kts 280°
2026-04-26 04:46 21.16359 -157.36278 7453 ft 144 kts 279°
2026-04-26 04:46 21.16541 -157.37337 7580 ft 145 kts 280°
2026-04-26 04:47 21.16722 -157.38397 7706 ft 145 kts 280°
2026-04-26 04:47 21.16905 -157.39460 7831 ft 145 kts 280°
2026-04-26 04:47 21.17089 -157.40526 7963 ft 146 kts 280°
2026-04-26 04:47 21.17274 -157.41609 7998 ft 152 kts 280°
2026-04-26 04:48 21.17669 -157.43912 8008 ft 162 kts 280°
2026-04-26 04:48 21.17874 -157.45110 8009 ft 165 kts 280°
2026-04-26 04:48 21.18082 -157.46326 8010 ft 167 kts 280°
2026-04-26 04:49 21.18290 -157.47552 8008 ft 168 kts 280°
2026-04-26 04:49 21.18493 -157.48736 8008 ft 169 kts 280°
2026-04-26 04:49 21.18705 -157.49973 8007 ft 169 kts 280°
2026-04-26 04:49 21.18918 -157.51213 8009 ft 169 kts 280°
2026-04-26 04:50 21.19125 -157.52426 8001 ft 162 kts 280°
2026-04-26 04:50 21.19325 -157.53600 7991 ft 159 kts 280°
2026-04-26 04:50 21.19520 -157.54751 7992 ft 155 kts 280°
2026-04-26 04:50 21.19713 -157.55882 7990 ft 154 kts 280°
2026-04-26 04:51 21.19904 -157.57003 7993 ft 152 kts 280°
2026-04-26 04:51 21.20135 -157.58104 7990 ft 151 kts 290°
2026-04-26 04:51 21.20560 -157.59133 7991 ft 151 kts 294°
2026-04-26 04:51 21.20995 -157.60157 7990 ft 151 kts 294°
2026-04-26 04:52 21.21431 -157.61180 7991 ft 151 kts 294°
2026-04-26 04:52 21.21866 -157.62200 7991 ft 151 kts 294°
2026-04-26 04:52 21.22301 -157.63222 7990 ft 151 kts 294°
2026-04-26 04:52 21.22736 -157.64244 7990 ft 151 kts 294°
2026-04-26 04:53 21.23172 -157.65264 7990 ft 151 kts 294°
2026-04-26 04:53 21.23608 -157.66286 7990 ft 151 kts 294°
2026-04-26 04:53 21.24044 -157.67310 7990 ft 151 kts 294°
2026-04-26 04:53 21.24479 -157.68331 7990 ft 151 kts 294°
2026-04-26 04:54 21.24915 -157.69354 7990 ft 151 kts 294°
2026-04-26 04:54 21.25352 -157.70379 7990 ft 151 kts 294°
2026-04-26 04:54 21.25788 -157.71404 7991 ft 151 kts 294°
2026-04-26 04:54 21.26225 -157.72428 7991 ft 151 kts 294°
2026-04-26 04:55 21.26663 -157.73454 7991 ft 151 kts 294°
2026-04-26 04:55 21.26904 -157.74528 7992 ft 150 kts 261°
2026-04-26 04:55 21.26441 -157.75528 8007 ft 152 kts 236°
2026-04-26 04:55 21.25860 -157.76480 8007 ft 154 kts 237°
2026-04-26 04:56 21.25273 -157.77444 8010 ft 155 kts 237°
2026-04-26 04:56 21.24682 -157.78416 8009 ft 156 kts 237°
2026-04-26 04:56 21.24085 -157.79393 8007 ft 157 kts 237°
2026-04-26 04:56 21.23487 -157.80373 8010 ft 157 kts 237°
2026-04-26 04:57 21.22890 -157.81350 8010 ft 157 kts 237°
2026-04-26 04:57 21.22294 -157.82327 8009 ft 156 kts 237°
2026-04-26 04:57 21.21990 -157.83420 7995 ft 156 kts 272°
2026-04-26 04:57 21.22101 -157.84575 7999 ft 156 kts 276°
2026-04-26 04:58 21.22216 -157.85726 8001 ft 155 kts 276°
2026-04-26 04:58 21.22334 -157.86877 8002 ft 155 kts 276°
2026-04-26 04:58 21.22452 -157.88030 8003 ft 156 kts 276°
2026-04-26 04:58 21.22570 -157.89181 8003 ft 156 kts 276°
2026-04-26 04:59 21.22687 -157.90321 8005 ft 156 kts 276°
2026-04-26 04:59 21.22806 -157.91473 8003 ft 156 kts 276°
2026-04-26 04:59 21.22924 -157.92626 8003 ft 156 kts 276°
2026-04-26 04:59 21.23042 -157.93778 8003 ft 156 kts 276°
2026-04-26 05:00 21.23295 -157.94901 7997 ft 156 kts 294°
2026-04-26 05:00 21.23761 -157.95951 7998 ft 156 kts 295°
2026-04-26 05:00 21.24228 -157.96998 7999 ft 156 kts 295°
2026-04-26 05:00 21.24694 -157.98046 7999 ft 156 kts 295°
2026-04-26 05:01 21.25162 -157.99095 7999 ft 156 kts 295°
2026-04-26 05:01 21.25628 -158.00142 7999 ft 156 kts 295°
2026-04-26 05:01 21.26097 -158.01193 7999 ft 156 kts 295°
2026-04-26 05:01 21.26563 -158.02243 7999 ft 156 kts 295°
2026-04-26 05:02 21.27125 -158.03230 7993 ft 156 kts 311°
2026-04-26 05:02 21.27886 -158.04061 7994 ft 156 kts 314°
2026-04-26 05:02 21.28650 -158.04889 7995 ft 156 kts 314°
2026-04-26 05:02 21.29405 -158.05707 7996 ft 156 kts 314°
2026-04-26 05:03 21.30180 -158.06546 7996 ft 156 kts 314°
2026-04-26 05:03 21.30935 -158.07364 7996 ft 156 kts 314°
2026-04-26 05:03 21.31700 -158.08192 7996 ft 156 kts 314°
2026-04-26 05:03 21.32465 -158.09020 7996 ft 156 kts 314°
2026-04-26 05:04 21.33232 -158.09850 7996 ft 156 kts 314°
2026-04-26 05:04 21.33998 -158.10680 7995 ft 156 kts 314°
2026-04-26 05:04 21.34764 -158.11509 7995 ft 157 kts 314°
2026-04-26 05:04 21.35530 -158.12339 7996 ft 157 kts 314°
2026-04-26 05:05 21.36298 -158.13170 7996 ft 157 kts 314°
2026-04-26 05:05 21.37047 -158.13978 7982 ft 142 kts 314°
2026-04-26 05:05 21.37708 -158.14686 7809 ft 131 kts 314°
2026-04-26 05:05 21.38341 -158.15365 7569 ft 127 kts 314°
2026-04-26 05:06 21.38956 -158.16027 7341 ft 124 kts 314°
2026-04-26 05:06 21.39598 -158.16621 7117 ft 121 kts 328°
2026-04-26 05:06 21.40326 -158.17067 6902 ft 120 kts 329°
2026-04-26 05:06 21.41041 -158.17509 6690 ft 118 kts 329°
2026-04-26 05:07 21.41773 -158.17967 6507 ft 127 kts 328°
2026-04-26 05:07 21.42529 -158.18435 6330 ft 128 kts 329°
2026-04-26 05:07 21.43304 -158.18914 6143 ft 129 kts 329°
2026-04-26 05:07 21.44081 -158.19396 5950 ft 129 kts 329°
2026-04-26 05:08 21.44862 -158.19881 5759 ft 130 kts 329°
2026-04-26 05:08 21.45646 -158.20366 5564 ft 130 kts 329°
2026-04-26 05:08 21.46430 -158.20853 5366 ft 130 kts 329°
2026-04-26 05:08 21.47216 -158.21341 5167 ft 131 kts 328°
2026-04-26 05:09 21.47996 -158.21839 4973 ft 131 kts 328°
2026-04-26 05:09 21.48770 -158.22351 4778 ft 131 kts 327°
2026-04-26 05:09 21.49511 -158.22855 4731 ft 122 kts 327°
2026-04-26 05:09 21.50305 -158.22982 4676 ft 116 kts
2026-04-26 05:10 21.51083 -158.22838 4628 ft 111 kts
2026-04-26 05:10 21.51804 -158.22618 4581 ft 109 kts 25°
2026-04-26 05:10 21.52492 -158.22249 4558 ft 115 kts 24°
2026-04-26 05:10 21.53249 -158.21854 4570 ft 127 kts 25°
2026-04-26 05:11 21.54076 -158.21421 4593 ft 137 kts 25°
2026-04-26 05:11 21.54953 -158.20962 4609 ft 144 kts 25°
2026-04-26 05:11 21.55869 -158.20485 4613 ft 149 kts 25°
2026-04-26 05:11 21.56813 -158.19992 4613 ft 153 kts 25°
2026-04-26 05:12 21.57777 -158.19489 4604 ft 154 kts 25°
2026-04-26 05:12 21.58705 -158.19003 4406 ft 147 kts 25°
2026-04-26 05:12 21.59625 -158.18511 4099 ft 148 kts 30°
2026-04-26 05:12 21.60459 -158.17857 3792 ft 149 kts 37°
2026-04-26 05:13 21.61279 -158.17173 3416 ft 147 kts 37°
2026-04-26 05:13 21.62073 -158.16510 3034 ft 143 kts 37°
2026-04-26 05:13 21.62852 -158.15860 2652 ft 141 kts 37°
2026-04-26 05:13 21.63603 -158.15194 2265 ft 140 kts 50°
2026-04-26 05:14 21.63841 -158.14220 1877 ft 139 kts 103°
2026-04-26 05:14 21.63369 -158.13334 1509 ft 137 kts 127°
2026-04-26 05:14 21.62804 -158.12520 1191 ft 133 kts 131°
2026-04-26 05:14 21.62181 -158.11839 1004 ft 123 kts 139°
2026-04-26 05:15 21.61500 -158.11284 887 ft 124 kts 145°
2026-04-26 05:15 21.60801 -158.10731 775 ft 124 kts 147°
2026-04-26 05:15 21.60027 -158.10502 813 ft 113 kts 188°
2026-04-26 05:15 21.59383 -158.10934 736 ft 114 kts 230°
2026-04-26 05:16 21.58932 -158.11694 617 ft 122 kts 243°
2026-04-26 05:16 21.58628 -158.12530 557 ft 118 kts 252°
2026-04-26 05:16 21.58418 -158.13376 502 ft 115 kts 256°
2026-04-26 05:16 21.58244 -158.14216 486 ft 110 kts 261°
2026-04-26 05:17 21.58181 -158.14972 566 ft 96 kts 266°
2026-04-26 05:17 21.58133 -158.15641 560 ft 87 kts 263°
2026-04-26 05:17 21.58081 -158.16288 481 ft 89 kts 266°
2026-04-26 05:17 21.58033 -158.16956 393 ft 89 kts 264°
2026-04-26 05:18 21.58020 -158.17644 263 ft 94 kts 274°
2026-04-26 05:18 21.57972 -158.18332 111 ft 93 kts 255°
2026-04-26 05:18 21.57940 -158.18995 22 ft 82 kts 272°
2026-04-26 05:18 21.57948 -158.19495 19 ft 45 kts 271°
2026-04-26 05:19 21.57952 -158.19704 21 ft 18 kts 271°
2026-04-26 05:19 21.57967 -158.19788 21 ft 7 kts 330°
2026-04-26 05:19 21.57996 -158.19781 20 ft 6 kts 46°
2026-04-26 05:19 21.58004 -158.19737 20 ft 8 kts 166°
2026-04-26 05:20 21.57932 -158.19726 22 ft 13 kts 121°
2026-04-26 05:20 21.57897 -158.19719 23 ft 2 kts 238°
2026-04-26 05:20 21.57906 -158.19731 20 ft 0 kts